GSAT0210 (GALILEO 13)

Last updated on Fri Dec 12 2025 00:02:35 GMT+0000 (Coordinated Universal Time)

1 41550U 16030B 25345.34701101 .00000010 00000+0 00000+0 0 9990 2 41550 55.1520 226.8599 0001194 242.2312 117.8354 1.70473653 59466
UTC large
Height (km)
Speed (km/s)
/
Latitude / Longitude
Inclination (degrees)
Orbital Period (minutes)
Azimuth
Elevation
Range (km)
Doppler Factor

Next 0 passes for location: London (51.5072 / 0.1276)

Sorry there are no passes over London.